Temperature
23 24 24 24 24 24 24 24 24 24 24 23 23 23 23 22 21 21 21 21 20 19 19 18 18 17 17 17 17 17 16 16 16 16 15 15 15 15 15 15 15 15 15 15
24 24 24 23 23 23 23 23 23 23 23 23 23 22 23 22 21 21 21 21 20 19 19 18 17 17 17 17 17 17 16 16 16 16 15 15 15 15 15 15 15 15 15 15
24 24 23 23 23 23 23 23 23 23 22 23 22 22 22 22 21 20 20 20 20 19 19 18 17 17 17 17 17 16 16 16 16 15 15 15 15 15 15 15 14 14 14 14
23 23 22 23 23 23 23 23 23 22 22 23 22 22 23 22 22 21 20 19 19 18 18 18 17 17 17 17 16 16 16 16 15 15 15 15 15 15 15 14 14 14 14 14
23 22 22 22 23 23 23 22 22 22 23 23 23 22 23 22 21 21 20 19 18 18 17 17 17 17 17 16 16 16 16 15 15 15 15 15 15 14 14 14 14 14 14 14
22 22 22 22 22 22 22 22 22 22 23 22 23 22 23 22 21 21 20 19 18 17 17 17 16 16 16 16 16 16 16 15 15 15 15 15 15 14 14 14 14 14 14 14
22 22 22 22 22 22 22 22 22 22 22 22 22 22 22 21 21 20 20 19 18 17 17 16 16 16 16 16 16 15 15 15 15 15 15 15 14 14 14 14 14 14 14 14
21 22 22 21 22 22 22 23 22 21 22 22 22 22 22 21 20 19 18 18 17 17 16 16 16 16 16 15 15 15 15 15 15 15 15 14 14 14 14 14 14 14 14 14
22 21 21 20 21 22 22 22 22 22 22 22 22 22 21 20 20 19 18 17 17 16 16 16 16 16 15 15 15 15 15 15 14 14 14 14 14 14 14 14 14 14 14 14
21 21 21 20 20 20 21 22 22 22 21 21 22 21 21 20 19 19 18 17 16 16 15 15 15 15 15 15 15 15 15 14 14 14 14 14 14 14 14 14 14 14 13 13
20 21 20 20 20 21 20 21 21 21 21 21 21 21 21 20 19 19 18 17 16 16 15 15 15 15 15 15 14 14 14 14 14 14 14 14 14 14 14 14 14 13 13 13
19 20 20 20 20 19 20 20 21 20 20 20 21 21 20 19 19 18 17 16 15 15 15 15 15 15 15 15 14 14 14 14 14 14 14 14 14 13 13 13 13 13 13 13
19 20 19 20 19 19 19 19 19 20 20 20 20 20 19 19 18 17 17 16 15 15 14 14 14 14 14 14 14 14 14 14 14 14 14 14 13 13 13 13 13 13 13 13
17 19 19 19 20 19 19 18 18 19 19 20 20 20 19 18 18 17 16 16 15 15 14 14 14 14 14 14 14 14 14 13 13 14 13 13 13 13 13 13 13 13 13 13
18 19 19 18 18 18 18 18 18 18 19 19 19 19 19 18 17 17 16 15 15 14 14 14 14 13 13 13 13 13 13 13 13 13 13 13 13 13 13 13 13 13 13 13
17 18 18 17 17 17 17 17 17 18 18 18 18 18 18 17 17 16 16 15 14 14 14 13 13 13 13 13 13 13 13 13 12 12 12 12 12 12 12 12 13 13 12 12
17 17 17 18 17 17 17 18 17 17 18 18 18 18 17 17 16 16 15 14 14 14 13 13 13 13 12 12 12 12 12 12 12 12 12 12 12 12 12 12 12 12 12 12
17 17 17 17 17 16 18 17 17 17 17 17 17 17 16 16 15 14 14 13 13 13 13 12 12 12 12 12 12 12 12 12 12 12 12 12 12 12 12 12 12 12 12 12
16 16 16 16 16 17 17 16 16 16 17 17 16 16 15 14 14 14 13 13 12 12 12 12 12 12 12 11 11 11 11 11 11 11 11 11 11 11 11 11 11 11 11 11
14 15 16 16 15 16 17 16 15 16 16 16 15 15 14 14 15 15 13 12 12 12 12 11 11 11 11 11 11 11 11 11 11 11 11 11 11 11 11 11 11 11 11 11
14 14 15 15 15 16 16 15 15 16 16 15 14 14 13 14 14 13 12 12 11 11 11 11 11 10 10 10 10 10 10 10 10 10 10 10 10 10 10 10 10 10 10 10
15 15 15 15 15 16 15 15 15 16 15 14 14 13 13 12 12 11 11 11 11 11 10 10 10 10 10 10 10 10 10 10 10 10 10 10 10 10 10 10 10 10 10 10
14 15 15 15 15 15 14 14 14 13 14 13 13 12 12 11 11 11 10 10 10 10 10 10 10 10 10 9 9 9 9 9 9 9 9 9 9 9 9 9 9 9 9 9
14 13 13 14 15 14 13 12 12 12 12 12 12 11 11 11 11 10 10 10 10 10 10 9 9 9 9 9 9 9 9 9 9 8 9 9 9 9 9 9 9 9 9 9
14 13 13 13 14 13 12 12 12 12 12 11 11 11 10 10 10 10 10 10 9 9 9 9 9 9 8 8 9 9 9 8 8 8 8 8 8 8 8 8 8 8 8 8
13 13 13 14 14 13 13 12 11 11 11 11 10 10 10 10 10 9 9 9 9 9 9 9 8 8 8 8 8 8 8 8 8 8 8 8 8 8 8 8 8 8 8 8
Wind_Speed
3 6 7 7 6 5 5 6 6 4 2 4 6 5 4 3 4 5 5 5 5 5 5 4 4 3 3 2 2 2 2 2 2 2 1 2 2 2 2 3 3 3 3 3
6 7 4 3 4 5 7 8 6 4 2 4 6 6 5 3 4 5 5 5 5 5 5 4 4 4 4 3 3 2 2 2 2 1 1 2 2 2 2 2 2 3 3 3
8 1 2 4 6 7 8 8 7 5 4 5 6 6 5 4 3 3 3 4 4 5 5 5 5 4 4 4 3 2 3 3 2 2 2 2 2 2 2 2 1 2 2 2
4 2 4 6 6 7 7 5 5 5 7 5 5 6 4 3 3 2 3 3 3 4 4 5 5 4 4 4 3 3 3 3 2 2 2 3 2 1 1 1 1 2 2 2
3 3 4 6 5 6 3 2 4 6 7 8 7 7 3 3 4 3 2 3 3 3 4 4 4 4 4 3 3 3 3 2 2 2 2 2 2 1 1 1 2 2 2 2
3 2 3 3 1 3 3 3 4 5 7 8 6 7 4 2 4 3 1 2 3 4 4 4 4 4 4 4 3 3 3 3 2 2 2 2 2 2 2 2 2 2 2 1
4 3 2 2 3 5 6 6 4 5 6 4 2 5 3 2 2 2 1 1 3 4 4 4 4 3 3 4 3 3 4 4 3 3 3 3 3 2 2 2 2 2 2 1
5 4 2 1 4 4 6 7 5 4 4 3 3 5 0 2 1 1 1 1 3 4 4 3 3 3 3 3 3 3 4 4 4 4 4 3 3 3 2 3 2 2 2 2
3 2 2 1 2 3 5 6 5 7 6 7 4 3 1 2 2 3 2 3 3 3 3 3 3 2 2 2 3 3 3 3 4 4 4 4 3 3 3 3 3 2 2 2
3 3 1 0 2 1 3 3 4 6 5 6 5 5 2 2 1 2 2 2 2 2 3 2 2 2 2 2 2 2 2 2 3 3 3 3 3 4 3 3 3 3 3 3
3 4 3 3 4 4 3 4 5 5 6 6 5 2 1 1 1 1 1 1 1 2 2 2 1 1 1 1 2 2 1 1 2 2 3 3 3 3 4 4 4 4 4 4
2 4 4 4 1 2 4 5 6 6 6 6 7 3 2 2 2 1 1 1 1 1 1 1 1 1 0 1 1 1 1 2 2 2 2 3 2 3 3 4 4 4 4 4
2 4 4 4 5 4 4 4 5 6 6 8 8 4 3 2 1 1 1 1 1 1 1 1 1 0 0 1 2 1 2 2 2 2 3 3 3 3 3 4 4 4 4 4
3 5 6 6 4 3 5 6 7 8 8 9 11 9 5 4 2 2 1 2 1 1 1 1 1 1 1 2 2 2 2 2 2 2 3 3 3 3 3 3 4 4 4 5
4 6 6 6 5 6 8 8 9 11 11 12 11 10 9 7 5 4 3 3 2 3 3 2 2 2 2 2 2 2 2 2 2 3 3 3 3 3 3 3 3 4 4 5
3 4 5 7 5 6 9 10 10 11 11 12 11 11 7 5 4 4 4 3 4 4 4 4 3 3 3 3 3 3 2 2 2 3 3 3 4 4 4 4 4 4 4 4
4 4 5 6 5 7 9 9 10 9 9 9 11 8 4 5 5 5 4 4 5 5 4 5 4 4 3 3 3 3 3 2 2 3 3 3 3 4 4 4 4 4 4 4
6 6 4 5 5 7 2 1 3 7 8 8 7 6 5 5 5 4 4 4 5 5 4 5 4 4 3 3 3 2 2 3 3 3 3 3 4 4 4 4 5 5 5 5
6 6 4 4 6 8 5 3 3 5 6 5 6 6 5 4 5 4 2 3 4 5 4 4 4 4 3 3 3 3 3 3 4 4 4 4 5 5 5 5 5 5 5 5
4 6 6 6 6 6 2 1 2 5 6 2 3 3 3 4 6 4 2 3 4 4 4 3 4 4 3 3 3 3 3 4 4 4 5 5 5 5 5 6 6 5 5 6
5 5 9 9 8 6 1 1 3 5 2 1 2 3 4 5 5 4 4 3 3 4 3 3 4 4 3 3 4 4 4 4 5 5 5 5 5 6 6 5 5 5 5 5
5 5 7 7 8 6 3 3 4 3 2 2 3 4 5 5 5 4 4 4 4 4 4 4 4 4 3 3 4 5 5 5 5 5 5 5 6 5 5 5 5 6 6 6
6 5 4 6 5 3 3 4 5 5 6 5 5 5 5 6 6 6 5 5 4 4 4 4 4 5 4 4 4 5 5 5 5 5 5 5 6 5 5 6 6 5 6 6
5 4 5 7 8 7 7 7 7 7 7 6 6 6 6 6 6 6 6 5 5 5 5 4 5 5 5 4 4 5 5 5 5 6 6 5 5 5 5 5 5 5 6 6
6 5 7 10 9 9 8 7 7 7 7 7 7 6 6 6 6 7 6 6 5 5 5 4 5 5 6 5 5 5 5 5 6 6 6 6 5 6 5 5 5 6 6 6
8 8 8 9 8 7 8 7 8 8 8 7 6 7 7 6 7 7 6 6 6 6 5 5 6 6 6 6 6 6 5 5 6 6 6 5 5 5 5 5 5 5 6 6
Wind_Direction
191 217 221 226 240 269 262 257 262 273 265 242 247 253 259 232 219 225 218 210 201 195 178 166 169 169 161 151 149 129 128 118 115 123 123 110 105 99 85 71 74 90 111 120
207 226 244 251 232 236 243 251 260 264 252 253 262 265 263 250 234 237 233 217 205 194 174 169 173 176 167 157 161 149 136 130 124 118 118 115 119 111 97 86 93 103 115 125
231 245 173 207 215 229 241 253 261 270 265 245 266 256 234 220 220 225 233 229 213 200 184 174 175 175 169 164 168 162 150 144 142 136 112 107 114 117 115 99 94 102 114 128
231 228 215 223 231 241 249 260 254 251 252 260 251 276 237 219 217 223 222 211 206 197 190 179 176 174 175 171 168 168 160 159 149 141 139 142 143 136 132 133 121 114 110 128
206 201 216 231 245 243 267 240 237 249 260 264 244 263 250 206 243 255 223 199 203 192 183 177 177 179 173 164 166 173 164 165 156 157 156 176 161 156 149 150 140 132 114 107
232 229 253 260 255 213 176 194 215 234 250 255 248 253 267 235 266 277 228 182 189 181 171 168 166 167 161 158 162 171 174 173 170 181 186 200 183 171 168 170 164 160 141 135
205 198 186 214 207 189 214 232 240 228 227 246 211 247 270 6 310 275 264 194 172 167 165 159 154 160 161 163 164 173 181 186 188 198 209 213 213 201 195 199 198 201 188 188
216 202 168 217 243 233 225 241 257 271 265 266 223 243 43 44 41 75 115 127 145 150 156 159 161 166 168 168 169 177 188 192 197 206 215 222 219 223 216 214 212 219 228 231
234 203 118 26 293 251 226 234 273 274 274 269 240 222 189 90 97 90 93 107 126 144 151 159 162 168 168 171 175 179 187 193 199 210 218 225 225 225 225 227 229 229 232 240
273 248 199 187 200 156 280 235 233 245 259 259 244 240 240 185 131 94 84 99 119 141 146 141 142 162 161 165 173 178 189 206 216 218 225 229 229 228 229 230 230 235 234 237
260 245 219 209 226 231 207 217 236 249 259 265 264 238 55 188 178 159 103 102 123 150 170 168 160 136 152 156 165 180 200 217 237 243 237 233 232 235 232 233 235 238 237 231
247 257 248 238 240 297 251 242 236 250 254 261 272 265 89 123 138 146 117 105 123 147 166 178 171 144 123 195 201 217 233 243 249 251 248 243 241 238 240 238 240 242 242 238
223 242 244 210 189 190 215 225 240 258 262 253 255 249 122 136 135 114 145 175 183 178 179 176 163 180 244 244 239 243 260 262 258 257 250 249 247 246 248 244 242 243 243 241
253 247 254 266 292 263 248 243 241 245 250 255 254 260 259 262 264 289 279 249 254 246 237 231 223 239 256 261 259 262 267 270 267 260 254 250 254 257 255 255 250 248 242 242
239 254 261 277 286 273 264 258 247 246 255 261 265 265 271 274 275 275 271 261 266 271 265 264 266 269 267 276 274 267 265 271 268 261 257 258 264 267 266 260 258 255 251 247
237 248 260 265 263 261 265 260 250 250 254 254 260 268 277 283 271 269 270 267 261 263 270 276 274 280 286 288 283 274 274 275 267 267 265 267 268 269 268 269 265 256 253 252
218 236 258 265 266 270 262 254 242 240 240 248 257 266 268 270 270 272 276 269 270 271 281 284 283 285 290 288 292 283 276 275 270 274 277 277 278 277 271 271 268 257 254 255
230 235 250 268 265 251 271 8 262 248 254 253 262 266 262 270 275 277 274 275 285 287 289 291 292 289 284 285 286 284 271 269 268 275 282 285 280 278 274 266 264 262 257 253
232 227 232 241 257 268 262 235 231 249 265 247 253 266 270 264 260 261 266 285 291 296 295 295 295 290 284 282 285 287 276 274 272 274 280 281 281 278 275 268 265 264 263 259
198 223 232 234 251 258 252 139 244 255 256 218 250 261 266 256 259 268 302 295 294 302 301 300 299 295 291 293 287 282 278 280 281 283 285 286 281 275 271 271 270 265 260 258
197 211 226 237 247 260 263 167 214 237 301 86 249 260 255 263 291 308 307 297 294 293 300 300 298 294 294 292 284 281 281 284 287 292 293 290 288 282 275 272 270 266 262 258
219 218 223 229 236 244 150 183 228 293 333 285 278 270 264 276 294 292 291 291 293 292 295 291 289 292 295 290 282 285 289 294 295 292 288 287 286 286 279 268 266 265 262 257
230 236 244 234 252 302 233 250 275 286 281 282 281 276 267 271 279 283 284 281 279 280 284 285 288 290 290 289 287 286 290 294 293 287 285 284 282 284 281 270 263 260 258 257
233 239 248 257 258 265 267 271 275 277 279 284 282 277 261 267 275 276 276 273 272 273 277 282 284 284 286 289 288 287 291 289 286 284 285 286 288 289 288 281 269 262 257 256
247 224 243 258 268 276 266 268 278 282 282 279 275 267 265 266 268 270 268 268 270 270 273 276 277 279 282 286 288 291 292 286 281 282 284 284 284 284 286 283 278 267 265 263
231 230 243 263 269 271 277 285 285 280 278 273 268 268 266 263 265 268 266 266 268 268 270 271 271 273 278 284 287 289 287 283 282 284 286 284 282 281 278 280 281 273 265 276
Height
1529 1528 1528 1527 1527 1528 1529 1530 1531 1531 1531 1533 1532 1532 1532 1535 1536 1537 1538 1539 1540 1542 1544 1545 1546 1547 1547 1548 1549 1549 1549 1549 1548 1548 1549 1548 1549 1549 1549 1549 1549 1549 1550 1551
1528 1527 1527 1529 1530 1531 1530 1532 1531 1531 1531 1532 1531 1531 1530 1532 1534 1535 1536 1537 1538 1540 1542 1543 1544 1545 1546 1547 1548 1548 1549 1549 1548 1548 1549 1549 1549 1549 1549 1549 1549 1550 1550 1551
1525 1527 1529 1530 1530 1531 1530 1530 1530 1532 1532 1531 1532 1531 1529 1530 1532 1534 1535 1536 1537 1538 1540 1541 1543 1544 1545 1546 1547 1547 1548 1548 1548 1548 1549 1549 1549 1549 1549 1549 1549 1550 1550 1551
1526 1527 1529 1529 1529 1528 1530 1528 1529 1531 1532 1530 1532 1533 1526 1526 1529 1531 1533 1534 1535 1537 1538 1540 1541 1542 1544 1545 1546 1547 1547 1548 1548 1548 1548 1549 1549 1549 1549 1549 1549 1550 1550 1550
1526 1527 1528 1528 1528 1528 1528 1529 1529 1530 1529 1529 1528 1531 1523 1524 1527 1528 1530 1532 1534 1536 1537 1538 1539 1541 1542 1543 1544 1545 1546 1546 1547 1547 1547 1548 1548 1549 1549 1549 1549 1550 1550 1550
1526 1528 1528 1527 1528 1528 1529 1530 1529 1528 1527 1534 1526 1528 1525 1523 1525 1526 1529 1531 1533 1535 1536 1537 1538 1540 1541 1542 1543 1543 1544 1545 1546 1546 1547 1547 1548 1548 1548 1548 1549 1549 1549 1549
1527 1526 1528 1529 1528 1529 1528 1530 1534 1534 1534 1529 1525 1527 1525 1523 1525 1527 1529 1530 1532 1533 1535 1536 1537 1538 1539 1540 1541 1542 1542 1543 1544 1545 1546 1546 1547 1547 1548 1548 1548 1548 1549 1549
1528 1529 1527 1528 1527 1527 1526 1525 1533 1538 1533 1526 1526 1525 1522 1524 1527 1528 1529 1530 1531 1533 1534 1535 1536 1537 1538 1539 1539 1540 1541 1542 1542 1543 1544 1545 1545 1546 1546 1546 1547 1547 1548 1548
1526 1528 1528 1529 1529 1527 1526 1524 1523 1526 1527 1530 1522 1520 1522 1524 1526 1528 1529 1530 1531 1532 1533 1535 1535 1536 1537 1538 1538 1538 1539 1540 1541 1542 1542 1543 1544 1544 1544 1545 1545 1545 1546 1546
1526 1529 1528 1529 1529 1529 1526 1524 1526 1528 1533 1532 1525 1523 1522 1524 1525 1527 1529 1530 1532 1533 1533 1534 1535 1535 1536 1536 1537 1538 1538 1539 1539 1540 1540 1541 1541 1542 1542 1543 1543 1543 1544 1544
1527 1528 1529 1528 1528 1526 1528 1529 1526 1525 1525 1529 1528 1525 1519 1522 1525 1527 1529 1531 1532 1533 1533 1533 1534 1534 1535 1535 1536 1536 1537 1537 1537 1538 1539 1539 1539 1540 1540 1540 1541 1541 1542 1542
1529 1527 1527 1527 1528 1529 1527 1526 1526 1530 1528 1526 1526 1527 1521 1523 1526 1528 1530 1531 1532 1532 1533 1533 1533 1533 1534 1534 1535 1535 1535 1535 1536 1536 1537 1537 1537 1537 1537 1538 1538 1538 1539 1539
1530 1529 1530 1529 1531 1530 1528 1528 1528 1527 1527 1527 1529 1527 1522 1524 1526 1528 1530 1531 1531 1531 1532 1532 1532 1532 1532 1532 1533 1533 1533 1533 1534 1534 1534 1535 1535 1535 1535 1535 1535 1535 1536 1536
1532 1527 1529 1530 1525 1525 1528 1529 1529 1527 1526 1525 1523 1522 1522 1523 1525 1528 1529 1530 1530 1530 1530 1530 1530 1530 1530 1530 1531 1531 1531 1531 1531 1531 1531 1532 1532 1532 1532 1532 1532 1532 1533 1533
1531 1528 1526 1527 1527 1528 1527 1527 1527 1526 1522 1523 1519 1520 1520 1522 1525 1527 1528 1529 1529 1529 1529 1529 1529 1529 1528 1528 1528 1528 1528 1528 1528 1528 1528 1528 1529 1529 1529 1529 1529 1529 1529 1530
1530 1529 1528 1528 1528 1528 1527 1525 1524 1523 1522 1521 1521 1521 1520 1523 1524 1525 1526 1527 1527 1527 1527 1527 1527 1526 1526 1526 1525 1525 1525 1525 1525 1525 1525 1525 1525 1526 1525 1526 1526 1526 1526 1526
1529 1528 1528 1526 1526 1527 1524 1519 1519 1520 1519 1519 1518 1518 1520 1522 1522 1523 1524 1524 1525 1525 1525 1524 1524 1524 1523 1523 1523 1522 1522 1522 1522 1522 1522 1522 1522 1522 1522 1522 1522 1522 1522 1523
1529 1528 1528 1527 1527 1529 1518 1517 1517 1518 1517 1517 1517 1518 1520 1521 1522 1522 1522 1523 1523 1523 1522 1522 1521 1521 1521 1520 1520 1519 1519 1519 1519 1519 1519 1519 1519 1519 1519 1519 1519 1519 1519 1519
1529 1528 1528 1527 1526 1519 1516 1517 1518 1517 1515 1516 1516 1517 1518 1519 1519 1519 1520 1521 1521 1520 1520 1519 1519 1518 1518 1517 1517 1517 1516 1516 1516 1516 1515 1515 1515 1515 1515 1515 1515 1515 1515 1515
1529 1527 1527 1526 1527 1520 1513 1516 1517 1518 1514 1515 1515 1516 1517 1517 1515 1516 1518 1518 1518 1518 1517 1516 1516 1515 1515 1514 1514 1514 1513 1513 1512 1512 1512 1512 1511 1511 1511 1511 1511 1511 1510 1510
1526 1527 1526 1524 1523 1514 1513 1516 1518 1518 1513 1514 1515 1515 1516 1516 1516 1516 1516 1515 1515 1515 1514 1514 1513 1513 1512 1511 1511 1510 1510 1509 1509 1508 1508 1508 1507 1507 1507 1506 1506 1506 1506 1505
1522 1522 1522 1520 1520 1516 1514 1515 1515 1513 1513 1514 1514 1515 1515 1515 1514 1514 1513 1513 1512 1512 1511 1511 1511 1510 1509 1508 1508 1507 1506 1506 1505 1504 1504 1503 1503 1502 1502 1502 1501 1501 1501 1500
1520 1519 1516 1516 1514 1512 1513 1513 1514 1514 1513 1513 1513 1513 1513 1512 1512 1511 1511 1510 1509 1509 1508 1508 1507 1506 1506 1505 1504 1503 1503 1502 1501 1501 1500 1499 1498 1498 1497 1497 1496 1496 1496 1496
1517 1519 1517 1514 1510 1511 1512 1511 1511 1512 1511 1511 1511 1510 1510 1509 1509 1508 1507 1507 1506 1505 1505 1504 1504 1503 1502 1501 1501 1500 1499 1498 1498 1497 1496 1495 1494 1493 1493 1492 1491 1491 1490 1490
1514 1516 1514 1511 1510 1510 1508 1508 1509 1508 1508 1508 1507 1507 1507 1506 1506 1505 1504 1503 1503 1502 1501 1501 1500 1499 1498 1498 1497 1496 1496 1495 1494 1493 1492 1491 1490 1489 1488 1487 1486 1485 1485 1485
1511 1511 1510 1506 1506 1506 1505 1505 1505 1505 1505 1504 1504 1503 1504 1503 1502 1501 1500 1500 1499 1498 1498 1497 1496 1496 1495 1494 1493 1493 1492 1491 1490 1489 1488 1487 1486 1484 1483 1482 1481 1480 1480 1479